| time (UTC) | temp C | wind direction | speed KPH | gust KPH | rain 1hr cm | rain 24hr cm | rain mn cm | humidity % | barometer mb |
| 20260507113002 | 17 | 200 | 0.0 | 0.0 | 0.03 | 0.89 | 0.20 | 97 | 1008.2 |
| 20260507112509 | 17 | 200 | 0.0 | 0.0 | 0.03 | 0.89 | 0.20 | 97 | 1008.1 |
| 20260507112102 | 17 | 200 | 0.0 | 0.0 | 0.03 | 0.89 | 0.20 | 97 | 1008.2 |
| 20260507111507 | 17 | 200 | 0.0 | 0.0 | 0.05 | 0.89 | 0.20 | 97 | 1008.3 |
| 20260507111008 | 17 | 200 | 0.0 | 0.0 | 0.05 | 0.89 | 0.20 | 97 | 1008.0 |
| 20260507110602 | 17 | 200 | 0.0 | 0.0 | 0.05 | 0.89 | 0.20 | 97 | 1007.8 |
| 20260507110002 | 17 | 200 | 0.0 | 0.0 | 0.05 | 0.89 | 0.20 | 97 | 1008.1 |
| 20260507105508 | 17 | 200 | 0.0 | 0.0 | 0.05 | 0.89 | 0.20 | 97 | 1007.9 |
| 20260507105105 | 17 | 200 | 0.0 | 0.0 | 0.03 | 0.86 | 0.18 | 97 | 1008.1 |
| 20260507104506 | 17 | 200 | 0.0 | 0.0 | 0.03 | 0.86 | 0.18 | 97 | 1008.3 |
| 20260507104008 | 17 | 200 | 0.0 | 0.0 | 0.03 | 0.86 | 0.18 | 97 | 1008.2 |
| 20260507103604 | 17 | 200 | 0.0 | 0.0 | 0.03 | 0.86 | 0.18 | 97 | 1008.3 |
| 20260507103002 | 17 | 200 | 0.0 | 0.0 | 0.03 | 0.86 | 0.18 | 97 | 1008.2 |
| 20260507102510 | 17 | 200 | 0.0 | 0.0 | 0.05 | 0.86 | 0.18 | 97 | 1008.2 |
| 20260507102105 | 17 | 200 | 0.0 | 0.0 | 0.05 | 0.86 | 0.18 | 97 | 1008.0 |
| 20260507101512 | 17 | 200 | 0.0 | 0.0 | 0.03 | 0.84 | 0.15 | 97 | 1008.2 |
| 20260507101014 | 17 | 200 | 0.0 | 1.6 | 0.03 | 0.84 | 0.15 | 97 | 1008.2 |
| 20260507100605 | 17 | 200 | 0.0 | 1.6 | 0.03 | 0.84 | 0.15 | 97 | 1008.0 |
| 20260507100004 | 17 | 200 | 0.0 | 0.0 | 0.03 | 0.84 | 0.15 | 97 | 1008.2 |
| 20260507095509 | 17 | 200 | 0.0 | 0.0 | 0.03 | 0.84 | 0.15 | 97 | 1008.2 |
| 20260507095104 | 17 | 200 | 0.0 | 0.0 | 0.03 | 0.84 | 0.15 | 97 | 1008.2 |
| 20260507094504 | 17 | 200 | 0.0 | 0.0 | 0.03 | 0.84 | 0.15 | 97 | 1008.1 |
| 20260507094010 | 17 | 200 | 0.0 | 0.0 | 0.03 | 0.84 | 0.15 | 97 | 1008.4 |
| 20260507093604 | 17 | 200 | 0.0 | 0.0 | 0.03 | 0.84 | 0.15 | 97 | 1008.6 |
| 20260507093004 | 17 | 200 | 0.0 | 0.0 | 0.00 | 0.81 | 0.13 | 97 | 1008.2 |
| 20260507092509 | 17 | 200 | 0.0 | 0.0 | 0.00 | 0.81 | 0.13 | 97 | 1008.3 |
| 20260507091503 | 17 | 200 | 0.0 | 1.6 | 0.03 | 0.81 | 0.13 | 97 | 1008.4 |
| 20260507091010 | 17 | 200 | 0.0 | 0.0 | 0.03 | 0.81 | 0.13 | 97 | 1008.4 |
| 20260507090603 | 17 | 200 | 0.0 | 1.6 | 0.03 | 0.81 | 0.13 | 97 | 1008.2 |
| 20260507090006 | 17 | 200 | 0.0 | 3.2 | 0.03 | 0.81 | 0.13 | 97 | 1008.4 |
| 20260507085509 | 17 | 200 | 0.0 | 4.8 | 0.03 | 0.81 | 0.13 | 97 | 1007.9 |
| 20260507085103 | 17 | 196 | 1.6 | 4.8 | 0.03 | 0.81 | 0.13 | 97 | 1007.7 |
| 20260507084609 | 17 | 194 | 0.0 | 3.2 | 0.03 | 0.81 | 0.13 | 97 | 1007.8 |
| 20260507084010 | 17 | 194 | 0.0 | 1.6 | 0.03 | 0.81 | 0.13 | 97 | 1007.7 |
| 20260507083603 | 17 | 194 | 0.0 | 1.6 | 0.03 | 0.81 | 0.13 | 97 | 1007.7 |
| 20260507083004 | 17 | 194 | 0.0 | 1.6 | 0.03 | 0.81 | 0.13 | 97 | 1007.7 |
| 20260507082509 | 17 | 194 | 0.0 | 1.6 | 0.03 | 0.81 | 0.13 | 97 | 1007.9 |
| 20260507082103 | 17 | 194 | 0.0 | 0.0 | 0.03 | 0.81 | 0.13 | 97 | 1008.0 |
| 20260507081510 | 17 | 194 | 0.0 | 3.2 | 0.00 | 0.79 | 0.10 | 97 | 1008.0 |
| 20260507081009 | 17 | 194 | 0.0 | 3.2 | 0.00 | 0.79 | 0.10 | 97 | 1008.1 |
| 20260507080604 | 17 | 194 | 0.0 | 3.2 | 0.00 | 0.79 | 0.10 | 97 | 1008.1 |
| 20260507080004 | 17 | 194 | 0.0 | 1.6 | 0.00 | 0.79 | 0.10 | 97 | 1008.1 |
| 20260507075509 | 17 | 194 | 0.0 | 3.2 | 0.00 | 0.79 | 0.10 | 97 | 1008.2 |
| 20260507075106 | 17 | 194 | 0.0 | 3.2 | 0.00 | 0.79 | 0.10 | 97 | 1008.5 |
| 20260507074517 | 17 | 194 | 0.0 | 3.2 | 0.00 | 0.79 | 0.10 | 97 | 1008.3 |
| 20260507074011 | 17 | 194 | 0.0 | 3.2 | 0.00 | 0.79 | 0.10 | 97 | 1008.7 |
| 20260507073603 | 17 | 194 | 0.0 | 1.6 | 0.00 | 0.79 | 0.10 | 97 | 1008.9 |
| 20260507073004 | 17 | 194 | 0.0 | 1.6 | 0.00 | 0.79 | 0.10 | 97 | 1009.2 |
| 20260507072510 | 17 | 194 | 0.0 | 1.6 | 0.00 | 0.79 | 0.10 | 97 | 1009.3 |
| 20260507072105 | 17 | 194 | 0.0 | 3.2 | 0.00 | 0.79 | 0.10 | 97 | 1009.1 |
| 20260507071504 | 17 | 194 | 0.0 | 4.8 | 0.00 | 0.79 | 0.10 | 97 | 1009.0 |
| 20260507071009 | 17 | 194 | 0.0 | 3.2 | 0.00 | 0.79 | 0.10 | 97 | 1008.9 |
| 20260507070604 | 17 | 194 | 0.0 | 3.2 | 0.03 | 0.79 | 0.10 | 97 | 1008.8 |
| 20260507070010 | 17 | 194 | 0.0 | 3.2 | 0.05 | 0.79 | 0.10 | 97 | 1008.8 |
| 20260507065514 | 17 | 194 | 0.0 | 3.2 | 0.05 | 0.79 | 0.10 | 97 | 1008.9 |
| 20260507065104 | 17 | 194 | 0.0 | 0.0 | 0.05 | 0.79 | 0.10 | 97 | 1009.0 |
| 20260507064505 | 17 | 194 | 0.0 | 0.0 | 0.05 | 0.79 | 0.10 | 97 | 1009.3 |
| 20260507064009 | 17 | 194 | 0.0 | 0.0 | 0.05 | 0.79 | 0.10 | 97 | 1009.4 |
| 20260507063604 | 17 | 194 | 0.0 | 0.0 | 0.05 | 0.79 | 0.10 | 97 | 1009.4 |
| 20260507063005 | 17 | 194 | 0.0 | 0.0 | 0.05 | 0.79 | 0.10 | 97 | 1009.4 |
| 20260507062510 | 17 | 194 | 0.0 | 0.0 | 0.05 | 0.79 | 0.10 | 96 | 1009.9 |
| 20260507062104 | 17 | 194 | 0.0 | 0.0 | 0.08 | 0.79 | 0.10 | 96 | 1009.8 |
| 20260507061504 | 17 | 194 | 0.0 | 3.2 | 0.10 | 0.79 | 0.10 | 96 | 1009.6 |
| 20260507061009 | 17 | 194 | 0.0 | 3.2 | 0.10 | 0.79 | 0.10 | 96 | 1010.1 |
| 20260507060604 | 17 | 194 | 0.0 | 1.6 | 0.08 | 0.76 | 0.08 | 96 | 1009.6 |
| 20260507060004 | 17 | 194 | 0.0 | 1.6 | 0.05 | 0.71 | 0.05 | 96 | 1010.3 |
| 20260507055511 | 17 | 194 | 0.0 | 1.6 | 0.05 | 0.71 | 0.05 | 96 | 1010.8 |
| 20260507055103 | 17 | 194 | 0.0 | 0.0 | 0.05 | 0.71 | 0.05 | 96 | 1010.5 |
| 20260507054503 | 17 | 194 | 0.0 | 0.0 | 0.05 | 0.71 | 0.05 | 96 | 1010.4 |
| 20260507054013 | 17 | 194 | 0.0 | 0.0 | 0.05 | 0.71 | 0.05 | 96 | 1010.2 |
| 20260507053603 | 17 | 194 | 0.0 | 0.0 | 0.05 | 0.71 | 0.05 | 96 | 1010.4 |
| 20260507053006 | 17 | 194 | 0.0 | 1.6 | 0.05 | 0.71 | 0.05 | 96 | 1010.5 |
| 20260507052513 | 17 | 194 | 0.0 | 1.6 | 0.03 | 0.71 | 0.03 | 96 | 1010.5 |
| 20260507052104 | 17 | 194 | 0.0 | 1.6 | 0.03 | 0.71 | 0.03 | 96 | 1010.5 |
| 20260507051503 | 17 | 194 | 0.0 | 1.6 | 0.00 | 0.69 | 0.00 | 96 | 1010.9 |
| 20260507051010 | 17 | 194 | 0.0 | 1.6 | 0.00 | 0.69 | 0.00 | 96 | 1011.2 |
| 20260507050603 | 17 | 194 | 0.0 | 3.2 | 0.00 | 0.69 | 0.00 | 96 | 1011.0 |
| 20260507050005 | 17 | 194 | 0.0 | 3.2 | 0.00 | 0.69 | 0.00 | 96 | 1010.5 |
| 20260507045510 | 17 | 195 | 0.0 | 4.8 | 0.00 | 0.69 | 0.00 | 96 | 1010.5 |
| 20260507045102 | 17 | 195 | 0.0 | 4.8 | 0.03 | 0.69 | 0.00 | 96 | 1010.4 |
| 20260507044503 | 17 | 183 | 0.0 | 3.2 | 0.05 | 0.69 | 0.00 | 96 | 1010.6 |
| 20260507044009 | 17 | 172 | 0.0 | 3.2 | 0.05 | 0.69 | 0.00 | 96 | 1010.4 |
| 20260507043603 | 17 | 174 | 0.0 | 0.0 | 0.05 | 0.69 | 0.00 | 96 | 1010.4 |
| 20260507043003 | 17 | 186 | 0.0 | 0.0 | 0.08 | 0.69 | 0.00 | 96 | 1010.7 |
| 20260507042510 | 17 | 163 | 0.0 | 0.0 | 0.08 | 0.69 | 0.00 | 96 | 1010.6 |
| 20260507042105 | 17 | 106 | 0.0 | 0.0 | 0.10 | 0.69 | 0.00 | 96 | 1010.6 |
| 20260507041506 | 17 | 105 | 0.0 | 0.0 | 0.13 | 0.69 | 0.00 | 96 | 1010.6 |
| 20260507041003 | 17 | 39 | 0.0 | 0.0 | 0.15 | 0.69 | 0.00 | 96 | 1010.6 |
| 20260507040604 | 17 | 355 | 0.0 | 0.0 | 0.18 | 0.69 | 0.00 | 96 | 1010.3 |
| 20260507040005 | 17 | 215 | 0.0 | 0.0 | 0.23 | 0.69 | 0.00 | 95 | 1009.6 |
| 20260507035510 | 17 | 17 | 0.0 | 0.0 | 0.30 | 0.69 | 0.69 | 95 | 1007.5 |
| 20260507035104 | 17 | 39 | 0.0 | 0.0 | 0.36 | 0.66 | 0.66 | 95 | 1009.9 |
| 20260507034505 | 17 | 176 | 0.0 | 0.0 | 0.36 | 0.64 | 0.64 | 95 | 1010.0 |
| 20260507034009 | 17 | 221 | 0.0 | 0.0 | 0.38 | 0.64 | 0.64 | 95 | 1010.4 |
| 20260507033604 | 17 | 150 | 0.0 | 0.0 | 0.41 | 0.64 | 0.64 | 95 | 1010.4 |
| 20260507033004 | 17 | 150 | 0.0 | 0.0 | 0.41 | 0.61 | 0.61 | 95 | 1011.2 |
| 20260507032510 | 17 | 150 | 0.0 | 4.8 | 0.41 | 0.61 | 0.61 | 95 | 1011.9 |
| 20260507032106 | 17 | 202 | 0.0 | 4.8 | 0.41 | 0.58 | 0.58 | 95 | 1012.2 |
| 20260507031510 | 17 | 124 | 0.0 | 6.4 | 0.41 | 0.56 | 0.56 | 94 | 1011.9 |
| 20260507031010 | 17 | 182 | 0.0 | 8.0 | 0.38 | 0.53 | 0.53 | 94 | 1012.0 |
| 20260507030605 | 18 | 167 | 0.0 | 8.0 | 0.33 | 0.48 | 0.48 | 94 | 1011.9 |
| 20260507030004 | 18 | 176 | 0.0 | 11.3 | 0.28 | 0.43 | 0.43 | 94 | 1011.9 |
| 20260507025510 | 18 | 159 | 0.0 | 11.3 | 0.20 | 0.36 | 0.36 | 94 | 1011.8 |
| 20260507025104 | 18 | 165 | 0.0 | 9.7 | 0.15 | 0.30 | 0.30 | 94 | 1012.0 |
| 20260507024503 | 18 | 147 | 0.0 | 9.7 | 0.13 | 0.25 | 0.25 | 94 | 1011.5 |
| 20260507024009 | 18 | 176 | 0.0 | 6.4 | 0.13 | 0.25 | 0.25 | 94 | 1011.2 |
| 20260507023603 | 18 | 160 | 0.0 | 6.4 | 0.10 | 0.23 | 0.23 | 94 | 1011.0 |
| 20260507023003 | 18 | 195 | 0.0 | 4.8 | 0.08 | 0.20 | 0.20 | 94 | 1010.8 |
| 20260507022510 | 18 | 191 | 0.0 | 4.8 | 0.08 | 0.20 | 0.20 | 94 | 1010.9 |
| 20260507022107 | 18 | 179 | 0.0 | 6.4 | 0.05 | 0.18 | 0.18 | 94 | 1011.1 |
| 20260507021609 | 18 | 183 | 0.0 | 9.7 | 0.03 | 0.15 | 0.15 | 94 | 1011.2 |
| 20260507020603 | 18 | 205 | 0.0 | 9.7 | 0.03 | 0.15 | 0.15 | 94 | 1010.7 |
| 20260507020005 | 18 | 228 | 0.0 | 9.7 | 0.03 | 0.15 | 0.15 | 94 | 1010.5 |
| 20260507015514 | 18 | 174 | 0.0 | 3.2 | 0.03 | 0.15 | 0.15 | 94 | 1010.5 |
| 20260507015104 | 18 | 184 | 0.0 | 3.2 | 0.03 | 0.15 | 0.15 | 93 | 1010.3 |
| 20260507014505 | 18 | 217 | 0.0 | 1.6 | 0.00 | 0.13 | 0.13 | 93 | 1010.2 |
| 20260507014010 | 18 | 217 | 0.0 | 1.6 | 0.03 | 0.13 | 0.13 | 93 | 1010.1 |
| 20260507013604 | 18 | 217 | 0.0 | 1.6 | 0.03 | 0.13 | 0.13 | 93 | 1009.8 |
| 20260507013004 | 18 | 217 | 0.0 | 0.0 | 0.03 | 0.13 | 0.13 | 93 | 1010.0 |
| 20260507012512 | 18 | 217 | 0.0 | 0.0 | 0.03 | 0.13 | 0.13 | 93 | 1009.8 |
| 20260507012104 | 18 | 217 | 0.0 | 0.0 | 0.03 | 0.13 | 0.13 | 92 | 1009.8 |
| 20260507011504 | 19 | 217 | 0.0 | 0.0 | 0.03 | 0.13 | 0.13 | 92 | 1009.9 |
| 20260507011010 | 19 | 217 | 0.0 | 0.0 | 0.03 | 0.13 | 0.13 | 92 | 1010.0 |
| 20260507010603 | 19 | 217 | 0.0 | 0.0 | 0.03 | 0.13 | 0.13 | 92 | 1010.1 |
| 20260507010003 | 19 | 217 | 0.0 | 0.0 | 0.03 | 0.13 | 0.13 | 91 | 1010.1 |
| 20260507005510 | 19 | 217 | 0.0 | 0.0 | 0.03 | 0.13 | 0.13 | 91 | 1010.2 |
| 20260507005104 | 19 | 217 | 0.0 | 1.6 | 0.03 | 0.13 | 0.13 | 91 | 1010.2 |
| 20260507004502 | 19 | 217 | 0.0 | 1.6 | 0.03 | 0.13 | 0.13 | 90 | 1010.1 |
| 20260507004010 | 19 | 217 | 0.0 | 0.0 | 0.00 | 0.10 | 0.10 | 90 | 1009.7 |
| 20260507003603 | 19 | 217 | 0.0 | 0.0 | 0.00 | 0.10 | 0.10 | 90 | 1009.9 |
| 20260507003006 | 20 | 217 | 0.0 | 1.6 | 0.00 | 0.10 | 0.10 | 89 | 1009.7 |
| 20260507002509 | 20 | 217 | 0.0 | 1.6 | 0.00 | 0.10 | 0.10 | 89 | 1009.8 |
| 20260507002104 | 20 | 217 | 0.0 | 0.0 | 0.00 | 0.10 | 0.10 | 88 | 1009.8 |
| 20260507001504 | 20 | 217 | 0.0 | 1.6 | 0.00 | 0.10 | 0.10 | 87 | 1009.9 |
| 20260507001009 | 20 | 217 | 0.0 | 1.6 | 0.00 | 0.10 | 0.10 | 87 | 1010.0 |
| 20260507000604 | 20 | 179 | 0.0 | 1.6 | 0.00 | 0.10 | 0.10 | 86 | 1009.7 |
| 20260507000003 | 20 | 179 | 0.0 | 1.6 | 0.00 | 0.10 | 0.10 | 86 | 1009.6 |
| 20260506235510 | 20 | 179 | 0.0 | 1.6 | 0.00 | 0.10 | 0.10 | 85 | 1009.6 |
| 20260506235107 | 20 | 179 | 0.0 | 1.6 | 0.00 | 0.10 | 0.10 | 84 | 1009.7 |
| 20260506234504 | 20 | 179 | 0.0 | 1.6 | 0.00 | 0.10 | 0.10 | 84 | 1009.9 |
| 20260506234010 | 21 | 179 | 0.0 | 1.6 | 0.00 | 0.10 | 0.10 | 83 | 1009.8 |
| 20260506233603 | 21 | 179 | 0.0 | 1.6 | 0.00 | 0.10 | 0.10 | 84 | 1009.8 |
| 20260506233110 | 21 | 177 | 0.0 | 0.0 | 0.00 | 0.10 | 0.10 | 83 | 1009.8 |
| 20260506232514 | 21 | 177 | 0.0 | 1.6 | 0.00 | 0.10 | 0.10 | 83 | 1009.6 |
| 20260506231505 | 21 | 162 | 0.0 | 1.6 | 0.00 | 0.10 | 0.10 | 82 | 1009.6 |
| 20260506231009 | 21 | 156 | 0.0 | 1.6 | 0.00 | 0.10 | 0.10 | 81 | 1009.7 |
| 20260506230602 | 21 | 155 | 0.0 | 1.6 | 0.00 | 0.10 | 0.10 | 82 | 1009.7 |
| 20260506230007 | 21 | 205 | 0.0 | 4.8 | 0.00 | 0.10 | 0.10 | 82 | 1010.1 |
| 20260506225509 | 21 | 192 | 0.0 | 4.8 | 0.00 | 0.10 | 0.10 | 81 | 1010.3 |
| 20260506225103 | 21 | 180 | 0.0 | 1.6 | 0.00 | 0.10 | 0.10 | 81 | 1010.2 |
| 20260506224504 | 21 | 191 | 0.0 | 1.6 | 0.00 | 0.10 | 0.10 | 80 | 1010.2 |
| 20260506224012 | 21 | 185 | 0.0 | 3.2 | 0.00 | 0.10 | 0.10 | 80 | 1010.2 |
| 20260506223606 | 21 | 168 | 0.0 | 3.2 | 0.00 | 0.10 | 0.10 | 79 | 1010.2 |
| 20260506223003 | 21 | 139 | 0.0 | 3.2 | 0.00 | 0.10 | 0.10 | 78 | 1010.1 |
| 20260506222509 | 21 | 115 | 0.0 | 6.4 | 0.00 | 0.10 | 0.10 | 78 | 1010.1 |
| 20260506222105 | 21 | 197 | 0.0 | 12.9 | 0.00 | 0.10 | 0.10 | 77 | 1010.2 |
| 20260506221504 | 21 | 200 | 0.0 | 12.9 | 0.00 | 0.10 | 0.10 | 78 | 1010.1 |
| 20260506221009 | 21 | 169 | 1.6 | 12.9 | 0.00 | 0.10 | 0.10 | 78 | 1010.3 |
| 20260506220603 | 22 | 174 | 0.0 | 8.0 | 0.00 | 0.10 | 0.10 | 79 | 1010.2 |
| 20260506220004 | 22 | 178 | 0.0 | 11.3 | 0.00 | 0.10 | 0.10 | 79 | 1010.3 |
| 20260506215509 | 22 | 176 | 1.6 | 11.3 | 0.00 | 0.10 | 0.10 | 78 | 1010.3 |
| 20260506215103 | 22 | 212 | 0.0 | 9.7 | 0.00 | 0.10 | 0.10 | 79 | 1010.2 |
| 20260506214503 | 22 | 202 | 0.0 | 11.3 | 0.00 | 0.10 | 0.10 | 78 | 1010.1 |
| 20260506214012 | 22 | 168 | 0.0 | 8.0 | 0.00 | 0.10 | 0.10 | 77 | 1009.9 |
| 20260506213603 | 22 | 185 | 0.0 | 6.4 | 0.00 | 0.10 | 0.10 | 78 | 1009.8 |
| 20260506213004 | 21 | 179 | 0.0 | 11.3 | 0.00 | 0.10 | 0.10 | 78 | 1009.7 |
| 20260506212509 | 21 | 207 | 3.2 | 11.3 | 0.00 | 0.10 | 0.10 | 77 | 1009.6 |
| 20260506212104 | 21 | 182 | 0.0 | 9.7 | 0.00 | 0.10 | 0.10 | 78 | 1009.5 |
| 20260506211504 | 21 | 205 | 0.0 | 9.7 | 0.00 | 0.10 | 0.10 | 77 | 1009.7 |
| 20260506211010 | 21 | 255 | 0.0 | 17.7 | 0.00 | 0.10 | 0.10 | 77 | 1009.8 |
| 20260506210603 | 21 | 167 | 1.6 | 17.7 | 0.00 | 0.10 | 0.10 | 76 | 1009.8 |
| 20260506210004 | 22 | 163 | 0.0 | 6.4 | 0.00 | 0.10 | 0.10 | 77 | 1010.0 |
| 20260506205511 | 22 | 177 | 0.0 | 6.4 | 0.00 | 0.10 | 0.10 | 78 | 1010.0 |
| 20260506205103 | 22 | 221 | 0.0 | 4.8 | 0.00 | 0.10 | 0.10 | 77 | 1010.0 |
| 20260506204504 | 22 | 179 | 0.0 | 16.1 | 0.00 | 0.10 | 0.10 | 76 | 1010.1 |
| 20260506204010 | 22 | 214 | 0.0 | 16.1 | 0.00 | 0.10 | 0.10 | 76 | 1010.3 |
| 20260506203603 | 22 | 161 | 4.8 | 16.1 | 0.00 | 0.10 | 0.10 | 77 | 1010.4 |
| 20260506203010 | 22 | 175 | 1.6 | 20.9 | 0.00 | 0.10 | 0.10 | 77 | 1010.3 |
| 20260506202510 | 22 | 214 | 3.2 | 20.9 | 0.00 | 0.10 | 0.10 | 78 | 1010.4 |
| 20260506202103 | 21 | 181 | 0.0 | 11.3 | 0.00 | 0.10 | 0.10 | 79 | 1010.3 |
| 20260506201502 | 21 | 183 | 3.2 | 12.9 | 0.00 | 0.10 | 0.10 | 81 | 1010.2 |
| 20260506201009 | 21 | 233 | 1.6 | 22.5 | 0.00 | 0.10 | 0.10 | 79 | 1010.4 |
| 20260506200603 | 21 | 195 | 4.8 | 22.5 | 0.00 | 0.10 | 0.10 | 80 | 1010.3 |
| 20260506200010 | 20 | 226 | 4.8 | 17.7 | 0.00 | 0.10 | 0.10 | 81 | 1010.2 |
| 20260506195509 | 20 | 180 | 0.0 | 14.5 | 0.00 | 0.10 | 0.10 | 82 | 1010.1 |
| 20260506195104 | 20 | 179 | 1.6 | 14.5 | 0.00 | 0.10 | 0.10 | 85 | 1010.3 |
| 20260506194503 | 20 | 198 | 1.6 | 12.9 | 0.00 | 0.10 | 0.10 | 84 | 1010.5 |
| 20260506194008 | 20 | 209 | 0.0 | 6.4 | 0.00 | 0.10 | 0.10 | 86 | 1010.5 |
| 20260506193602 | 19 | 200 | 0.0 | 11.3 | 0.00 | 0.10 | 0.10 | 86 | 1010.4 |
| 20260506193004 | 19 | 148 | 1.6 | 11.3 | 0.00 | 0.10 | 0.10 | 86 | 1010.4 |
| 20260506192103 | 18 | 208 | 3.2 | 11.3 | 0.00 | 0.10 | 0.10 | 86 | 1010.4 |
| 20260506191504 | 18 | 208 | 0.0 | 8.0 | 0.00 | 0.10 | 0.10 | 90 | 1010.4 |
| 20260506191009 | 18 | 157 | 0.0 | 8.0 | 0.00 | 0.10 | 0.10 | 90 | 1010.4 |
| 20260506190606 | 18 | 162 | 0.0 | 0.0 | 0.00 | 0.10 | 0.10 | 90 | 1010.7 |
| 20260506190003 | 18 | 213 | 0.0 | 0.0 | 0.00 | 0.10 | 0.10 | 89 | 1010.7 |
| 20260506185508 | 18 | 212 | 0.0 | 0.0 | 0.00 | 0.10 | 0.10 | 89 | 1010.5 |
| 20260506185103 | 18 | 200 | 0.0 | 19.3 | 0.00 | 0.10 | 0.10 | 89 | 1010.8 |
| 20260506184515 | 18 | 209 | 4.8 | 19.3 | 0.03 | 0.10 | 0.10 | 89 | 1011.0 |
| 20260506184010 | 18 | 178 | 0.0 | 4.8 | 0.03 | 0.10 | 0.10 | 90 | 1010.9 |
| 20260506183605 | 18 | 179 | 0.0 | 1.6 | 0.05 | 0.10 | 0.10 | 90 | 1010.8 |
| 20260506183004 | 18 | 185 | 0.0 | 0.0 | 0.08 | 0.10 | 0.10 | 91 | 1010.7 |
| 20260506182510 | 18 | 183 | 0.0 | 0.0 | 0.10 | 0.10 | 0.10 | 92 | 1010.6 |
| 20260506182104 | 18 | 176 | 0.0 | 0.0 | 0.10 | 0.10 | 0.10 | 91 | 1010.6 |
| 20260506181504 | 18 | 176 | 0.0 | 0.0 | 0.10 | 0.10 | 0.10 | 91 | 1010.8 |
| 20260506181011 | 18 | 176 | 0.0 | 0.0 | 0.10 | 0.10 | 0.10 | 90 | 1011.2 |
| 20260506180604 | 18 | 176 | 0.0 | 0.0 | 0.10 | 0.10 | 0.10 | 89 | 1011.7 |
| 20260506180006 | 18 | 206 | 0.0 | 0.0 | 0.10 | 0.10 | 0.10 | 89 | 1012.2 |
| 20260506175509 | 18 | 183 | 0.0 | 0.0 | 0.10 | 0.10 | 0.10 | 88 | 1012.3 |
| 20260506175106 | 18 | 181 | 0.0 | 0.0 | 0.10 | 0.10 | 0.10 | 87 | 1012.2 |
| 20260506174503 | 18 | 187 | 0.0 | 0.0 | 0.08 | 0.08 | 0.08 | 85 | 1012.3 |
| 20260506174012 | 19 | 119 | 0.0 | 1.6 | 0.08 | 0.08 | 0.08 | 84 | 1012.4 |
| 20260506173602 | 20 | 175 | 0.0 | 1.6 | 0.05 | 0.05 | 0.05 | 82 | 1012.6 |
| 20260506173002 | 20 | 180 | 0.0 | 0.0 | 0.03 | 0.03 | 0.03 | 79 | 1012.8 |
| 20260506172509 | 20 | 170 | 0.0 | 0.0 | 0.00 | 0.00 | 0.00 | 79 | 1012.9 |
| 20260506172103 | 21 | 192 | 0.0 | 0.0 | 0.00 | 0.00 | 0.00 | 78 | 1012.8 |
| 20260506171504 | 21 | 192 | 0.0 | 0.0 | 0.00 | 0.00 | 0.00 | 76 | 1012.3 |
| 20260506171009 | 21 | 192 | 0.0 | 0.0 | 0.00 | 0.00 | 0.00 | 76 | 1012.2 |
| 20260506170604 | 21 | 194 | 0.0 | 1.6 | 0.00 | 0.00 | 0.00 | 77 | 1012.2 |
| 20260506170003 | 21 | 201 | 0.0 | 1.6 | 0.00 | 0.00 | 0.00 | 75 | 1012.1 |
| 20260506165510 | 21 | 188 | 0.0 | 1.6 | 0.00 | 0.00 | 0.00 | 74 | 1012.1 |
| 20260506165103 | 21 | 183 | 0.0 | 1.6 | 0.00 | 0.00 | 0.00 | 73 | 1012.3 |
| 20260506164504 | 21 | 250 | 0.0 | 0.0 | 0.00 | 0.00 | 0.00 | 71 | 1012.3 |
| 20260506164011 | 21 | 174 | 0.0 | 1.6 | 0.00 | 0.00 | 0.00 | 72 | 1012.2 |
| 20260506163603 | 21 | 168 | 0.0 | 1.6 | 0.00 | 0.00 | 0.00 | 72 | 1012.0 |
| 20260506163006 | 21 | 162 | 0.0 | 0.0 | 0.00 | 0.00 | 0.00 | 71 | 1012.2 |
| 20260506162103 | 20 | 182 | 0.0 | 1.6 | 0.00 | 0.00 | 0.00 | 75 | 1012.4 |
| 20260506161506 | 20 | 167 | 0.0 | 1.6 | 0.00 | 0.00 | 0.00 | 74 | 1012.5 |
| 20260506161011 | 20 | 196 | 0.0 | 9.7 | 0.00 | 0.00 | 0.00 | 75 | 1012.4 |
| 20260506160603 | 20 | 200 | 0.0 | 9.7 | 0.00 | 0.00 | 0.00 | 75 | 1012.4 |
| 20260506160004 | 20 | 199 | 0.0 | 6.4 | 0.00 | 0.00 | 0.00 | 76 | 1012.3 |
| 20260506155509 | 20 | 191 | 0.0 | 4.8 | 0.00 | 0.00 | 0.00 | 77 | 1012.0 |
| 20260506155103 | 19 | 174 | 0.0 | 4.8 | 0.00 | 0.00 | 0.00 | 76 | 1011.9 |
| 20260506154503 | 19 | 176 | 0.0 | 0.0 | 0.00 | 0.00 | 0.00 | 77 | 1011.8 |
| 20260506154010 | 18 | 207 | 0.0 | 0.0 | 0.00 | 0.00 | 0.00 | 77 | 1011.7 |
| 20260506153604 | 18 | 207 | 0.0 | 0.0 | 0.00 | 0.00 | 0.00 | 77 | 1011.4 |
| 20260506153004 | 18 | 207 | 0.0 | 0.0 | 0.00 | 0.00 | 0.00 | 77 | 1011.6 |
| 20260506152510 | 18 | 207 | 0.0 | 0.0 | 0.00 | 0.00 | 0.00 | 77 | 1011.5 |
| 20260506152104 | 18 | 207 | 0.0 | 3.2 | 0.00 | 0.00 | 0.00 | 77 | 1011.7 |
| 20260506151503 | 18 | 183 | 0.0 | 3.2 | 0.00 | 0.00 | 0.00 | 76 | 1011.9 |
| 20260506151008 | 18 | 186 | 0.0 | 0.0 | 0.00 | 0.00 | 0.00 | 77 | 1011.8 |
| 20260506150603 | 18 | 193 | 0.0 | 0.0 | 0.00 | 0.00 | 0.00 | 77 | 1012.0 |
| 20260506150003 | 18 | 217 | 0.0 | 0.0 | 0.00 | 0.00 | 0.00 | 76 | 1011.9 |
| 20260506145514 | 18 | 214 | 0.0 | 0.0 | 0.00 | 0.00 | 0.00 | 77 | 1011.9 |
| 20260506145104 | 18 | 197 | 0.0 | 0.0 | 0.00 | 0.00 | 0.00 | 76 | 1011.9 |
| 20260506144509 | 18 | 169 | 0.0 | 0.0 | 0.00 | 0.00 | 0.00 | 76 | 1012.1 |
| 20260506144009 | 18 | 171 | 0.0 | 0.0 | 0.00 | 0.00 | 0.00 | 76 | 1012.1 |
| 20260506143604 | 18 | 179 | 0.0 | 0.0 | 0.00 | 0.00 | 0.00 | 76 | 1012.1 |
| 20260506143003 | 18 | 181 | 0.0 | 0.0 | 0.00 | 0.00 | 0.00 | 76 | 1011.9 |
| 20260506142509 | 18 | 165 | 0.0 | 0.0 | 0.00 | 0.00 | 0.00 | 75 | 1011.9 |
| 20260506142102 | 18 | 161 | 0.0 | 1.6 | 0.00 | 0.00 | 0.00 | 75 | 1012.0 |
| 20260506141504 | 18 | 259 | 0.0 | 1.6 | 0.00 | 0.00 | 0.00 | 75 | 1012.0 |
| 20260506141009 | 18 | 219 | 0.0 | 0.0 | 0.00 | 0.00 | 0.00 | 74 | 1011.9 |
| 20260506140605 | 18 | 202 | 0.0 | 0.0 | 0.00 | 0.00 | 0.00 | 74 | 1011.8 |
| 20260506140004 | 18 | 170 | 0.0 | 0.0 | 0.00 | 0.00 | 0.00 | 75 | 1011.8 |
| 20260506135508 | 18 | 159 | 0.0 | 1.6 | 0.00 | 0.00 | 0.00 | 74 | 1011.9 |
| 20260506135103 | 18 | 150 | 0.0 | 1.6 | 0.00 | 0.00 | 0.00 | 74 | 1011.8 |
| 20260506134503 | 18 | 174 | 0.0 | 1.6 | 0.00 | 0.00 | 0.00 | 74 | 1011.8 |
| 20260506134010 | 18 | 174 | 0.0 | 1.6 | 0.00 | 0.00 | 0.00 | 74 | 1011.8 |
| 20260506133603 | 18 | 171 | 0.0 | 0.0 | 0.00 | 0.00 | 0.00 | 75 | 1011.8 |
| 20260506133003 | 18 | 169 | 0.0 | 0.0 | 0.00 | 0.00 | 0.00 | 74 | 1011.8 |
| 20260506132511 | 18 | 233 | 0.0 | 0.0 | 0.00 | 0.00 | 0.00 | 74 | 1011.5 |
| 20260506132103 | 18 | 179 | 0.0 | 0.0 | 0.00 | 0.00 | 0.00 | 75 | 1011.3 |
| 20260506131502 | 17 | 174 | 0.0 | 3.2 | 0.00 | 0.00 | 0.00 | 75 | 1011.7 |
| 20260506131010 | 17 | 187 | 0.0 | 1.6 | 0.00 | 0.00 | 0.00 | 76 | 1011.7 |
| 20260506130606 | 17 | 187 | 0.0 | 0.0 | 0.00 | 0.00 | 0.00 | 76 | 1011.5 |
| 20260506130005 | 17 | 172 | 0.0 | 1.6 | 0.00 | 0.00 | 0.00 | 75 | 1011.6 |
| 20260506125510 | 17 | 141 | 0.0 | 1.6 | 0.00 | 0.00 | 0.00 | 76 | 1011.9 |
| 20260506125103 | 17 | 188 | 0.0 | 1.6 | 0.00 | 0.00 | 0.00 | 77 | 1012.0 |
| 20260506124503 | 17 | 182 | 0.0 | 1.6 | 0.00 | 0.00 | 0.00 | 77 | 1012.0 |
| 20260506124008 | 17 | 172 | 0.0 | 3.2 | 0.00 | 0.00 | 0.00 | 77 | 1012.2 |
| 20260506123603 | 17 | 200 | 0.0 | 3.2 | 0.00 | 0.00 | 0.00 | 77 | 1012.2 |
| 20260506123003 | 16 | 212 | 0.0 | 0.0 | 0.00 | 0.00 | 0.00 | 77 | 1012.1 |
| 20260506122510 | 16 | 148 | 0.0 | 1.6 | 0.00 | 0.00 | 0.00 | 77 | 1012.2 |
| 20260506122102 | 16 | 195 | 0.0 | 1.6 | 0.00 | 0.00 | 0.00 | 78 | 1012.4 |
| 20260506121503 | 16 | 179 | 0.0 | 1.6 | 0.00 | 0.00 | 0.00 | 78 | 1012.4 |
| 20260506121009 | 16 | 214 | 0.0 | 3.2 | 0.00 | 0.00 | 0.00 | 78 | 1012.3 |
| 20260506120605 | 16 | 171 | 0.0 | 3.2 | 0.00 | 0.00 | 0.00 | 78 | 1012.4 |
| 20260506120003 | 16 | 179 | 0.0 | 1.6 | 0.00 | 0.00 | 0.00 | 79 | 1012.4 |
| 20260506115514 | 16 | 205 | 0.0 | 0.0 | 0.00 | 0.00 | 0.00 | 79 | 1012.4 |
| 20260506115102 | 16 | 173 | 0.0 | 0.0 | 0.00 | 0.00 | 0.00 | 79 | 1012.2 |
| 20260506114502 | 16 | 185 | 0.0 | 3.2 | 0.00 | 0.00 | 0.00 | 80 | 1012.3 |
| 20260506114012 | 16 | 169 | 0.0 | 3.2 | 0.00 | 0.00 | 0.00 | 80 | 1012.2 |
| 20260506113603 | 16 | 248 | 0.0 | 0.0 | 0.00 | 0.00 | 0.00 | 80 | 1012.2 |